Погода в Владимире

Хотите узнать прогноз погоды в Владимире? Тогда Вам сюда: Погода в Владимире

Поиск расширенной информации на нашем сайте:

Полезная информация:

Новости сайта



02.01.2020
Опубликован Долгосрочный прогноз погоды по городам России и ближнего зарубежья на январь 2020 года.
Карты: Прогноз на январь и февраль 2020 года, Сравнение прогнозируемой аномалии приземной температуры воздуха на январь 2020 года по разным моделям.




Погода в Владимире - сегодня

Время (UTC), дата Ветер
(°,м/с) 
Видим.   Явления Облачность Т
(°С)
Тd
(°С)
f(%) Тe
(°С)
Pmin
(гПа)
dP
(гПа)
Po
(мм)
O2
(г/м3)
Тmin Tmax R s Состояние
почвы
21 22.10.20 170 (Ю) 4000 м  в посл. час дождь  10/10 150 м 
[Frnb|Ns]
+5 +4.3 95 +4  1008.7  -3.7  741  292           
00 23.10.20 180 (Ю) 4000 м  слаб. дождь  10/10 120 м 
[Frnb|Ns]
+5.9 +5.1 95 +6  1005.3  -3.2  738  290           
03 23.10.20 190 (Ю) 4000 м  слаб. дождь  10/10 120 м 
[Frnb|Ns]
+6.8 +6 95 +6  1003.1  -2.1  737  289  +2.8    11     
06 23.10.20 230 (ЮЗ) 4000 м  слаб. дождь  10/10 120 м 
[Frnb|Ns]
+9.2 +8.4 95 +8  1002.5  -0.3  737  286           
09 23.10.20 260 (З) 10 км  {дождь}  9/9 600 м 
[Sc]
+12.1 +9 81 +12  1003.3  0.9  737  283           
12 23.10.20 230 (ЮЗ) 4{11}  10 км  {дождь}  10/8 540 м средняя 
[Sc|Ac und]
+11.7 +9 83 +11  1004.2  0.9  738  283           
15 23.10.20 210 (ЮЗ) 10 км    9/6 600 м средняя 
[Sc|Ac trans]
+11.5 +8.2 80 +11  1003.3  -1  737  284    +12.2     
18 23.10.20 220 (ЮЗ) 7-11{11}  10 км  {ливн. осадки}  6/6 870 м кучево-дожд. 
[Cb cap]
+11.4 +8.3 81 +10  1000.7  -2.4  735  283           
21 23.10.20 220 (ЮЗ) 4{18}  4000 м  дымка{гроза, ливн. осадки}  8/8 720 м 
[Sc]
+7.9 +6.9 93 +7  1001.7  0.6  736  287           
00 24.10.20 240 (ЮЗ) 4000 м  дымка{гроза, ливн. осадки}  6/6 700 м 
[Sc]
+8.7 +7.2 90 +8  1002  0.4  736  286           
03 24.10.20 240 (ЮЗ) 4000 м  дымка  10/6 750 м средняя 
[Sc|Ac und]
+9 +7.1 88 +8  1003.1  1.1  737  286  +7.7       
06 24.10.20 240 (ЮЗ) 10 км    9/6 600 м средняя 
[Sc|Ac trans]
+9 +6.3 83 +8  1004.8  1.6  738  287           
09 24.10.20 260 (З) 10 км    8/8 600 м 
[Sc]
+10.5 +4.5 66 +9  1006.2  1.5  739  286           
12 24.10.20 260 (З) 4{12}  10 км    8/8 1020 м 
[Sc]
+10.3 +4 65 +9  1007.5  1.3  740  287           
15 24.10.20 260 (З) 10 км    9/9 600 м 
[Sc]
+9 +4.5 73 +8  1008.4  0.7  741  288    +11       
18 24.10.20 тихо ()   10 км    10/5 600 м средняя 
[Sc|Ac und]
+5.8 +4.1 89 +6  1009  0.4  741  292           
21 24.10.20 200 (Ю) 4000 м  дымка  10/8 700 м средняя 
[Sc|Ac und]
+7 +5.3 89 +7  1008.5  -0.4  741  290           
00 25.10.20 290 (З) 4000 м  дымка  10/5 600 м средняя 
[Sc|Ac und]
+6.2 +5.1 93 +7  1008.3  -0.2  741  291           
03 25.10.20 360 (С) 4000 м  дымка  10/10 270 м 
[Sc]
+4.9 +4.1 95 +4  1009.3  0.8  741  293  +4.9         
06 25.10.20 020 (С) 4000 м  дымка  9/9 210 м 
[Sc]
+4.4 +3.6 95 +4  1010.8  0.8  742  294  +3.1         
09 25.10.20 340 (С) 10 км    8/8 600 м 
[Sc]
+5.7 +0.8 71 +5  1012.5  1.7  744  293           
12 25.10.20 280 (З) 10 км    9/9 600 м 
[Sc]
+6.9 +0.2 62 +7  1013.7  1.2  745  293           
15 25.10.20 240 (ЮЗ) 10 км    8/6 600 м средняя 
[Sc|Ac trans]
+4.3 +1 79 +4  1015.2  1.3  746  296    +7.3       
18 25.10.20 230 (ЮЗ) 10 км    9/8 600 м средняя 
[Sc|Ac trans]
+4.9 +1.8 80 +4  1015.4  0.2  746  295           
21 25.10.20 260 (З) 10 км    10/8 450 м средняя 
[Sc|Ac As]
+5.9 +3.8 86 +6  1016.6  1.3  747  294           
Время (UTC), дата Ветер
(°,м/с) 
Видим.   Явления Облачность Т
(°С)
Тd
(°С)
f(%) Тe
(°С)
Pmin
(гПа)
dP
(гПа)
Po
(мм)
O2
(г/м3)
Тmin Tmax R s Состояние
почвы

Для получения пояснительной информации подведите курсор к названию столбца.

ПОГОДА в Владимире - архив

Всё, что Вы хотите узнать о погоде в Владимире - удобно и подробно!

Выберите нужную дату (начиная с 1 января 2019* года) и нажмите кнопку "Найти".
Будут отображены архивные сводки погоды по пункту Владимир, начиная с указанной даты.


Отображать данные в формате CSV (для использования в таблицах Excel)


Внимание! Наш архив погоды предназначен исключительно для личного некоммерческого использования в познавательных целях. Если Вам необходимы официальные справки о состоянии погоды (для производственных, юридических, коммерческих и т.п. целей), обращайтесь в органы Росгидромета.

*Примечание: данная дата относится к архиву по метеостанциям СССР (Россия, СНГ, Балтия).
Архив по метеостанциям Зарубежной Европы и Азии (кроме Китая) хранится 10 дней, по другим регионам земного шара (Китай, Африка, Америка, Австралия, Океания) - 1 день.

Владимир - район местоположения метеостанции


Название, широта, долгота, высота метеостанции:
Владимир 56.1°ш. 40.3°д. 172 м над ур. моря [Российская Федерация]

Дополнительная информация

В oтличие oт бoльшинства пoгoдных сайтoв мы публикуем пoдрoбную метеoинфoрмацию в детальнoм прoфессиoнальнoм фoрмате.

Характеристики температуры и влажнoсти вoздуха измеряются на высoте 2 м в тени вдали oт зданий и деревьев.
Скoрoсть ветра измеряется на высoте 10 м (на урoвне рoста челoвека скoрoсть ветра ниже в 1.5-2 раза). Если метеoстанция нахoдится в гoрoде или в лесу, тo скoрoсть ветра занижена на 2-4 м/с пo сравнению с oткрытым местoм. Скoрoсть ветра над акватoриями крупных рек и oзёр, а также на вершинах хoлмoв на 2-5 м/с выше, чем в oбычных услoвиях.
Атмoсфернoе давление в разных тoчках местнoсти мoжет значительнo oтличаться oт давления на метеoстанции, в зависимoсти oт услoвий рельефа (при пoдъёме на 10 м давление пoнижается примернo на 1 мм рт.ст.).